Desroches Airport

Jump to: basic info | weather | runways | comments

Related pages: nearby airports | nearby navaids | notams | map

Basic information (top)

Codes: DES FSDR
Location: lon -5.696700, lat 53.655800, elev 10 ft / 3 m msl
Status: small_airport
Scheduled airline service: no
Links: Wikipedia Mobile

Weather (top)

Current conditions for Seychelles International Airport 127nm (236km) ENE (rec'd 2015/03/03 07:00Z):

FSIA 030700Z 05003KT 9999 SCT019 30/25 Q1012 NOSIG

Airport forecast for Seychelles International Airport 127nm (236km) ENE (rec'd 2015/03/03 06:00Z):

TAF FSIA 030340Z 0306/0406 35010KT 9999 FEW015CB SCT019 PROB40 
      TEMPO 0308/0312 -SHRA FEW014CB BKN016

Runways (top)

12/30: 4,531 x 33 ft (1,381 x 10 m) — paved — not lighted

Latest comments (top)

No comments yet for Desroches Airport

More... (top)

See also NOTAMs and nearby airports and navaids, or visit the Desroches Airport page at the main OurAirports website..